Temperature
21 20 19 19 18 19 21 23 25 26 26 26 26 26 25 24 23 23 23 23 23 22 21 21 21 21 21 21 21 21 21 21 21 20 20 20 20 20 20 20 20 20 20 20 20 20 20 20 20
21 20 19 19 20 21 23 25 26 26 26 27 27 26 24 23 23 23 23 23 23 22 21 21 21 21 21 21 21 21 21 21 21 20 20 20 20 20 20 20 20 20 20 20 20 20 20 20 20
21 20 20 19 21 22 25 26 26 27 27 27 26 25 24 24 24 24 24 23 22 22 21 21 21 21 21 21 21 21 21 21 21 20 20 20 20 20 20 20 20 20 20 20 20 20 20 20 20
21 20 20 19 22 24 25 26 26 26 27 27 26 24 24 24 24 24 24 23 22 22 21 21 21 21 21 21 21 21 21 21 21 20 20 20 20 20 20 20 20 20 20 20 20 20 20 19 19
22 21 20 21 22 24 25 26 27 26 26 26 25 24 23 24 24 25 24 23 23 22 21 21 21 21 21 21 21 21 21 21 21 20 20 20 20 20 20 20 20 20 20 20 20 20 19 19 19
22 20 21 22 23 25 26 27 27 26 26 26 25 24 23 24 24 24 24 23 23 22 21 21 21 21 21 21 21 21 21 21 21 20 20 20 20 20 20 20 20 20 20 19 19 19 19 19 19
22 20 22 23 24 25 27 28 27 26 26 26 26 23 23 24 24 24 23 23 22 22 22 21 21 21 21 21 21 21 21 21 20 20 20 20 20 20 20 20 20 19 19 19 19 19 19 19 19
24 20 23 23 24 25 27 28 28 27 26 27 26 24 24 24 24 23 23 22 22 22 22 21 21 21 21 21 21 20 20 20 20 20 20 20 20 20 19 19 19 19 19 19 19 19 19 19 18
24 20 21 23 25 25 27 27 27 27 27 26 26 26 26 25 24 23 22 22 22 21 21 21 21 21 21 21 20 20 20 20 20 20 20 20 19 19 19 19 19 19 19 19 19 18 18 18 18
23 20 22 24 25 25 26 26 27 26 26 26 26 26 26 25 23 23 22 22 22 21 21 21 21 21 21 20 20 20 20 20 20 20 20 19 19 19 19 19 19 18 18 18 18 18 18 18 18
22 22 23 25 27 26 25 26 26 25 24 26 26 26 24 24 22 22 22 22 22 21 21 21 20 20 20 20 20 20 20 20 20 19 19 19 19 19 19 19 18 18 18 18 18 18 18 18 18
23 23 25 26 27 26 26 26 25 25 25 26 26 26 24 23 22 22 21 21 21 21 21 20 20 20 20 20 19 19 19 19 19 19 19 19 19 19 18 18 18 18 18 18 18 18 18 18 18
23 24 25 26 26 26 25 24 24 24 24 25 25 24 23 22 21 21 21 21 21 21 21 20 20 20 20 20 19 19 19 19 19 19 19 19 18 18 18 18 18 18 18 18 18 18 18 18 18
24 24 24 25 26 25 24 23 22 22 23 23 23 22 22 21 21 21 20 20 20 20 20 20 20 20 19 19 19 19 19 19 19 19 19 18 18 18 18 18 18 17 17 17 17 17 17 17 17
24 23 23 24 24 24 24 22 21 21 21 21 20 20 20 20 20 20 20 20 20 19 19 19 19 19 19 19 19 18 18 18 18 18 18 18 18 18 18 18 17 17 17 17 17 17 17 17 17
23 22 23 23 22 23 22 20 19 19 20 18 18 18 18 19 19 19 19 19 19 19 19 19 19 19 19 18 18 18 18 18 18 18 18 18 18 17 17 17 17 17 17 17 17 17 17 17 17
21 22 23 23 21 21 20 19 18 18 18 17 17 17 17 17 18 18 18 19 19 19 19 19 19 19 18 18 18 17 17 17 17 17 17 17 17 17 17 17 17 17 17 17 17 17 17 17 17
23 23 23 22 21 20 18 17 17 17 17 16 16 16 16 16 17 17 18 18 18 18 18 18 18 18 17 17 17 17 16 17 17 17 17 17 17 17 17 17 17 17 17 17 17 17 17 17 17
23 23 22 22 21 19 17 17 17 17 16 16 15 15 15 16 16 17 17 17 18 18 18 17 17 17 17 17 17 16 16 16 17 17 17 17 17 17 17 17 17 17 17 17 17 17 17 17 17
22 23 23 22 21 19 17 17 17 16 16 15 15 15 15 16 16 16 17 17 17 17 17 17 17 16 16 16 16 16 16 16 16 16 16 17 17 17 17 17 17 17 17 17 17 17 17 17 17
24 23 23 22 21 19 18 17 17 16 16 15 15 15 15 15 16 16 16 17 17 17 16 16 16 16 16 16 16 16 15 16 16 16 16 16 16 16 16 17 17 17 17 17 17 17 17 17 17
24 24 24 23 21 19 19 18 17 16 15 15 15 15 15 15 16 16 16 16 16 16 16 16 16 16 16 16 16 15 15 15 15 16 16 16 16 16 16 16 16 16 17 17 17 17 17 17 16
24 22 22 21 20 18 18 18 17 16 16 15 15 15 15 15 16 16 16 16 16 16 16 16 16 16 16 16 16 15 15 15 15 15 15 15 15 16 16 16 16 16 16 16 16 16 16 16 16
23 21 20 17 17 19 18 18 17 15 16 15 15 15 15 15 16 16 16 16 16 16 16 16 16 16 16 16 15 15 15 15 15 15 15 15 15 15 15 15 15 15 15 16 16 16 16 16 16
21 20 19 19 18 18 17 17 17 16 16 15 15 15 15 15 15 15 16 16 16 16 16 16 16 16 15 15 15 15 15 14 14 14 14 14 14 14 14 14 14 14 14 14 15 15 15 15 15
22 20 19 19 18 17 17 17 16 16 16 15 15 15 15 15 15 16 16 16 16 15 15 15 15 15 15 15 14 14 14 14 14 13 13 13 13 13 13 13 13 13 13 13 14 14 14 14 14
22 19 18 17 17 17 17 17 16 15 15 15 15 15 15 15 15 16 15 15 15 15 15 14 14 14 14 14 14 13 13 13 13 13 12 12 12 12 12 12 12 12 12 12 12 13 13 13 13
20 18 16 17 18 18 18 17 16 16 15 14 14 15 15 15 15 15 15 15 15 15 14 14 14 14 13 13 13 13 13 12 12 12 12 12 11 11 11 11 11 11 11 11 11 12 12 12 12
20 19 15 14 16 17 17 17 16 15 14 14 14 15 15 15 15 15 15 15 14 14 14 13 13 13 13 13 13 12 12 12 12 11 11 11 11 11 11 10 10 10 10 10 11 11 11 11 12
19 18 16 17 16 15 15 15 15 14 14 14 14 15 15 15 15 15 15 14 14 13 13 13 13 13 12 12 12 12 12 11 11 11 11 11 11 10 10 10 10 10 10 10 10 10 10 10 11
Wind_Speed
16 13 5 3 1 1 4 5 3 3 3 2 3 3 5 5 5 3 2 12 17 17 18 22 22 21 20 19 18 17 17 17 16 16 16 16 16 15 14 13 12 12 11 11 10 10 10 10 10
11 8 3 2 2 2 5 4 4 2 1 1 3 3 3 1 2 5 6 10 17 16 16 19 22 21 20 19 18 17 16 16 15 15 15 15 15 14 14 13 12 11 11 10 10 10 9 9 9
7 4 3 2 1 3 5 4 3 1 1 0 2 3 2 3 5 7 7 14 15 13 14 19 23 21 20 19 17 17 16 15 15 15 14 14 14 13 13 12 12 11 10 10 10 9 9 9 8
4 2 3 2 4 5 5 5 2 2 1 3 3 2 1 1 7 8 14 17 16 12 13 18 23 21 20 19 18 17 16 15 15 14 14 13 13 13 12 12 11 11 10 10 9 9 9 8 8
2 3 2 3 6 6 5 5 2 2 1 1 4 2 1 4 8 14 17 18 17 13 12 17 23 22 21 19 18 17 16 15 15 14 14 14 13 13 12 12 11 11 10 10 10 9 9 8 8
4 4 2 4 7 6 5 3 1 1 1 2 4 3 1 3 9 14 15 15 15 15 11 15 22 22 21 20 19 17 17 16 15 15 14 14 13 13 12 12 12 11 11 10 10 10 9 9 8
4 4 3 5 5 6 5 2 1 1 2 3 5 4 1 3 6 12 12 13 12 13 11 10 16 19 20 20 19 18 17 16 16 15 15 14 14 13 13 13 12 12 11 11 11 11 10 10 10
5 4 3 3 5 6 4 3 2 2 4 3 6 6 5 6 10 10 10 10 11 11 10 8 10 13 14 16 18 18 17 16 16 16 15 15 14 14 14 13 13 13 13 13 13 13 12 12 12
5 4 3 5 5 7 5 4 3 1 2 2 3 4 5 16 16 13 11 9 11 13 10 8 7 8 10 11 15 16 16 16 16 15 16 15 13 12 12 13 14 15 15 15 15 15 15 14 13
5 4 8 6 5 7 7 5 4 1 2 2 0 3 11 18 16 14 14 14 14 14 13 9 8 6 6 9 9 9 11 11 13 11 12 11 10 11 13 13 16 17 17 17 17 17 17 15 12
6 7 6 7 7 6 6 4 2 3 4 6 4 6 13 15 13 12 11 10 10 9 9 8 7 6 5 4 3 4 6 7 9 10 11 10 8 9 11 10 12 14 15 14 14 15 13 12 11
4 7 6 7 5 4 5 2 1 3 4 2 3 9 12 14 12 10 9 8 8 8 7 6 6 5 5 3 2 3 4 5 6 9 11 9 6 6 7 7 9 10 10 9 9 8 10 11 13
5 6 5 8 10 6 2 0 0 3 4 6 8 11 10 9 7 7 8 8 8 8 7 6 6 5 5 4 3 4 4 5 7 8 10 10 7 7 7 6 7 8 9 7 7 6 7 8 8
5 6 9 10 7 2 4 4 4 6 6 8 11 11 9 9 8 8 7 7 7 6 6 5 5 4 3 4 4 4 4 6 6 8 11 12 10 7 6 7 6 6 7 7 6 6 6 6 5
4 7 9 5 5 2 6 7 7 9 6 9 10 10 12 11 10 9 7 7 6 5 4 4 4 4 4 5 5 4 4 4 5 7 11 12 11 9 7 7 6 6 7 6 5 4 3 4 4
3 4 5 7 8 5 6 3 10 10 9 11 10 11 12 11 11 9 8 6 5 3 3 2 3 4 5 4 4 3 4 4 5 7 8 9 10 10 7 7 6 5 5 4 3 3 3 3 3
5 4 4 7 9 6 7 5 9 9 10 12 11 10 11 10 10 8 6 5 2 1 1 1 1 2 3 3 3 3 3 4 4 4 4 6 7 9 7 6 5 4 3 3 3 2 2 3 3
3 3 3 3 5 9 10 7 8 10 11 11 10 9 10 10 9 7 7 5 4 3 2 2 2 0 0 1 1 1 3 4 3 4 4 5 6 7 5 4 5 4 3 3 2 2 2 2 2
2 2 2 1 3 7 9 8 9 10 10 10 9 9 9 7 6 7 7 6 5 6 5 4 3 2 2 2 1 1 1 3 2 2 4 5 6 5 4 4 4 5 5 4 4 2 2 2 1
4 2 1 1 4 5 6 7 6 9 9 8 8 7 7 7 7 7 7 8 8 8 6 4 4 4 4 2 1 0 1 2 2 2 2 3 3 3 4 5 5 5 4 4 4 3 3 2 2
3 4 4 4 4 4 5 4 4 4 6 7 8 6 6 6 6 6 6 6 6 6 4 3 4 4 4 3 2 2 1 2 2 2 3 3 3 2 2 4 4 5 5 5 5 5 5 4 2
2 3 4 5 4 1 1 1 2 2 4 5 6 5 5 5 5 5 5 5 4 3 2 3 3 4 4 4 4 4 2 2 2 2 2 4 3 2 1 1 2 3 4 4 5 5 4 4 3
2 4 4 3 4 3 4 3 3 1 1 2 2 2 3 3 3 3 4 3 2 2 2 2 3 3 3 4 4 4 3 1 1 2 4 4 4 4 3 2 1 1 2 3 4 5 5 5 4
4 6 6 6 5 3 3 1 3 3 3 2 2 2 1 2 2 2 3 3 3 2 1 1 1 1 1 1 2 3 2 1 1 2 3 3 3 3 4 4 2 2 2 3 4 5 6 6 5
6 6 5 6 5 3 2 1 5 3 3 3 4 4 2 2 3 3 4 4 4 4 4 3 2 2 2 1 1 2 2 2 1 1 1 2 2 2 3 3 3 3 3 3 4 4 5 6 7
2 7 6 4 4 4 3 3 4 1 1 1 2 2 2 3 4 6 7 6 6 6 6 5 5 5 4 4 4 4 4 3 3 4 3 3 3 4 4 4 4 4 4 4 4 4 5 5 6
3 3 4 6 2 1 4 5 4 1 0 1 1 1 3 5 6 7 7 7 7 7 7 7 7 7 7 6 6 6 6 6 6 6 5 4 5 4 5 5 5 5 4 4 4 4 6 5 6
5 6 5 4 2 2 4 3 4 4 3 2 2 3 4 5 6 7 7 7 7 7 7 7 7 8 8 7 7 7 7 7 7 6 7 7 7 6 6 6 6 6 5 5 4 4 5 6 6
5 5 6 4 4 4 3 5 2 4 3 2 2 3 5 6 7 8 7 7 7 7 7 8 8 9 9 9 9 9 9 9 8 7 9 9 8 7 7 7 7 7 6 6 5 5 5 6 6
4 4 4 3 0 2 2 5 4 2 2 1 2 4 6 7 7 7 7 7 7 8 8 9 9 9 11 10 10 10 10 9 9 10 11 10 9 9 9 8 8 8 8 7 6 7 6 6 7
Wind_Direction
144 142 137 137 118 345 274 261 254 309 334 345 125 155 151 156 183 210 102 142 140 148 158 163 161 156 152 149 148 147 147 146 146 147 148 151 153 155 155 156 155 154 152 150 147 145 143 140 138
144 151 152 119 93 349 295 283 318 313 204 98 69 72 72 105 83 114 131 143 143 147 155 160 161 158 155 152 151 151 151 152 152 153 154 156 158 160 161 162 161 160 158 157 156 155 153 150 148
159 175 126 112 192 222 275 292 307 338 205 101 70 58 117 184 151 155 154 143 141 145 152 162 162 160 157 156 155 156 158 159 160 160 162 163 165 166 168 167 168 169 168 167 167 166 163 161 160
152 95 77 77 261 244 243 275 276 297 343 72 105 81 58 62 157 152 143 145 144 146 151 165 163 162 161 161 162 163 165 167 168 169 170 172 174 175 176 176 178 179 180 180 179 178 176 176 175
87 95 55 315 274 268 258 267 267 288 305 71 116 123 20 17 110 133 144 150 151 150 155 168 165 166 165 166 168 171 172 175 177 178 180 182 184 186 187 188 189 191 193 193 193 193 193 193 193
76 79 82 279 278 283 280 277 303 282 224 136 126 126 302 100 129 145 149 152 154 156 157 169 169 169 170 172 174 178 180 182 185 187 190 192 194 196 198 200 201 203 206 208 209 209 210 210 211
136 133 205 248 282 294 287 315 260 228 241 200 144 138 258 147 147 144 143 143 149 157 158 166 170 174 176 178 180 184 188 190 193 196 199 201 204 206 209 211 214 216 219 222 223 225 226 226 226
156 133 235 261 267 278 289 316 276 210 237 165 140 161 210 174 140 130 127 134 148 160 165 166 166 171 175 181 187 191 195 198 201 205 207 211 214 217 220 222 226 228 230 232 234 235 236 237 237
125 93 233 239 241 270 291 304 292 270 179 179 176 184 177 138 137 133 134 142 161 172 175 169 164 166 171 180 193 197 203 206 209 214 217 218 221 226 231 232 233 237 239 240 240 241 241 242 243
124 173 229 230 228 268 289 264 249 280 254 253 238 92 124 136 145 152 161 169 175 180 182 179 174 167 166 188 200 205 209 213 215 218 224 225 221 226 234 240 242 243 244 246 245 245 245 243 241
170 204 240 258 255 261 276 266 203 172 248 243 215 144 135 143 153 163 170 171 174 173 180 182 180 172 173 186 195 207 218 221 222 223 226 231 231 233 238 240 248 251 251 250 249 247 241 235 232
216 243 242 265 269 274 258 260 177 192 244 333 119 132 139 150 158 163 160 156 151 155 169 166 168 174 184 192 214 217 221 227 232 233 230 229 233 235 237 240 242 245 246 244 243 239 235 233 232
243 260 264 258 278 260 248 284 202 345 354 48 81 100 116 121 120 120 125 132 139 148 154 155 160 176 187 191 216 228 230 230 235 238 236 231 232 237 238 239 242 243 242 239 237 233 231 230 232
259 272 282 286 285 258 117 39 37 344 14 62 81 90 95 101 103 103 112 120 129 139 148 152 161 173 189 206 217 230 230 230 237 240 236 233 233 231 236 243 241 243 241 237 230 227 227 226 223
295 304 315 322 332 327 104 36 7 347 42 72 79 84 77 72 76 82 92 102 114 124 133 147 166 176 188 210 216 222 229 235 233 245 242 236 233 230 229 235 237 237 239 236 231 227 221 226 224
11 7 331 327 356 8 96 47 357 3 64 68 71 78 77 72 73 75 82 85 90 112 125 165 189 186 190 202 212 228 228 221 229 241 245 235 228 226 224 227 229 224 221 218 215 212 209 221 224
24 5 323 330 9 34 75 67 3 16 65 69 68 74 79 75 64 55 56 67 69 93 125 166 205 182 183 185 204 230 244 240 234 238 247 248 232 221 217 223 224 210 201 204 206 194 191 205 222
295 319 327 339 23 63 79 67 24 28 60 66 63 64 66 61 46 34 29 35 33 39 36 21 357 9 153 145 38 300 249 243 226 222 234 242 242 231 218 217 216 199 190 190 189 188 191 202 220
234 260 294 314 102 77 81 71 36 29 44 51 49 51 54 47 33 34 30 29 35 39 41 33 29 10 6 22 39 318 272 277 283 238 240 239 232 224 216 223 207 194 188 192 189 175 180 198 173
202 225 210 87 96 104 96 70 46 37 40 41 43 37 36 34 24 23 23 24 29 34 26 22 20 12 2 354 339 305 294 292 315 317 295 273 245 227 223 217 215 200 185 183 184 170 163 182 168
197 192 192 164 101 87 111 55 29 32 39 45 43 35 32 37 28 20 24 29 37 36 23 30 32 31 18 8 359 2 1 355 2 349 337 332 329 292 246 230 219 205 193 195 194 183 175 183 193
248 243 180 150 130 91 110 189 308 12 21 29 27 24 22 20 24 18 16 22 31 33 28 35 35 33 23 33 51 56 49 29 352 331 330 343 357 339 314 261 229 217 205 204 205 193 186 170 189
203 55 80 93 117 73 33 113 277 348 342 336 343 2 6 7 11 4 356 349 348 8 31 42 43 37 28 47 74 81 70 44 334 344 354 355 358 357 347 336 298 243 227 221 212 197 196 189 185
114 74 59 53 69 47 337 135 258 232 220 236 266 268 266 292 314 322 316 320 321 322 334 326 50 35 19 67 88 103 104 81 27 355 348 343 338 343 348 342 324 285 254 244 231 215 207 208 203
67 76 24 1 7 266 305 217 249 227 197 204 237 255 256 267 280 284 278 275 275 280 279 278 265 257 254 225 189 171 171 181 200 253 282 306 319 313 316 327 314 293 267 253 238 226 221 213 212
72 122 149 217 238 283 341 266 269 204 176 193 222 233 240 258 263 264 265 263 265 267 269 270 266 262 261 256 249 238 222 215 223 228 229 239 243 256 269 283 284 284 281 275 252 237 232 225 223
98 79 141 134 139 315 298 296 320 92 325 281 274 263 264 268 273 270 271 269 263 265 266 264 265 267 265 258 255 253 245 236 236 239 237 240 242 250 254 263 270 267 263 259 257 247 241 231 229
81 127 85 99 136 285 306 303 301 304 282 263 262 273 290 297 288 280 276 274 273 271 273 274 267 264 266 265 260 260 254 250 246 246 246 245 247 245 250 255 257 262 262 256 245 249 251 239 234
20 54 85 99 136 157 271 283 324 296 288 260 263 289 299 296 291 289 289 290 289 284 277 274 271 269 269 265 260 259 258 254 250 246 247 246 246 243 245 249 251 252 255 252 244 246 249 246 243
69 62 123 124 207 146 193 270 337 7 23 50 346 319 309 298 292 290 288 288 285 281 277 272 268 265 262 259 259 259 260 259 255 252 251 247 245 243 241 243 246 248 249 243 238 247 250 243 245
Height
1503 1505 1508 1511 1513 1515 1512 1498 1488 1483 1481 1480 1480 1481 1481 1483 1488 1490 1483 1483 1488 1492 1497 1502 1507 1511 1514 1516 1519 1521 1523 1525 1527 1529 1530 1532 1533 1535 1536 1537 1538 1539 1540 1541 1542 1543 1543 1544 1545
1504 1506 1510 1511 1514 1519 1508 1490 1486 1482 1481 1480 1480 1481 1481 1481 1482 1481 1481 1484 1490 1494 1498 1503 1507 1512 1515 1517 1520 1522 1524 1526 1528 1530 1531 1533 1534 1535 1537 1538 1539 1540 1541 1542 1543 1544 1544 1545 1546
1505 1507 1509 1510 1513 1513 1502 1487 1484 1481 1481 1481 1481 1482 1482 1481 1481 1482 1483 1487 1492 1496 1500 1504 1508 1512 1516 1518 1521 1523 1525 1527 1528 1530 1532 1533 1535 1536 1537 1538 1540 1541 1542 1543 1543 1544 1545 1546 1547
1505 1508 1509 1512 1509 1499 1491 1484 1481 1481 1480 1480 1481 1483 1483 1483 1482 1484 1485 1489 1493 1497 1501 1505 1509 1513 1516 1519 1521 1524 1526 1527 1529 1531 1532 1534 1535 1537 1538 1539 1540 1541 1542 1543 1544 1545 1545 1546 1547
1505 1506 1510 1514 1506 1493 1485 1482 1481 1481 1480 1480 1481 1482 1483 1484 1484 1486 1488 1491 1494 1498 1502 1506 1510 1513 1516 1519 1522 1524 1526 1528 1530 1531 1533 1534 1536 1537 1538 1539 1540 1541 1542 1543 1544 1544 1545 1546 1547
1505 1506 1515 1516 1504 1490 1484 1481 1480 1480 1480 1480 1480 1482 1483 1484 1485 1488 1490 1492 1495 1499 1503 1506 1510 1513 1517 1519 1522 1524 1526 1528 1530 1531 1533 1534 1535 1537 1538 1539 1540 1541 1541 1542 1543 1544 1545 1545 1546
1505 1508 1512 1508 1502 1493 1484 1481 1480 1480 1479 1480 1480 1482 1483 1484 1486 1489 1491 1493 1496 1500 1503 1506 1510 1513 1516 1520 1522 1524 1526 1528 1530 1531 1532 1534 1535 1536 1537 1538 1539 1540 1540 1541 1542 1543 1543 1544 1545
1502 1506 1507 1507 1502 1494 1484 1481 1480 1479 1479 1479 1480 1481 1482 1483 1485 1488 1491 1494 1497 1500 1503 1506 1509 1513 1516 1519 1521 1524 1526 1528 1529 1530 1532 1533 1534 1535 1536 1536 1537 1538 1539 1539 1540 1541 1542 1542 1543
1500 1509 1512 1504 1498 1491 1483 1482 1479 1478 1479 1478 1478 1479 1480 1482 1484 1487 1490 1493 1496 1499 1503 1506 1509 1512 1515 1518 1520 1523 1525 1527 1528 1529 1530 1532 1532 1533 1534 1535 1535 1536 1537 1537 1538 1539 1539 1540 1541
1499 1509 1503 1493 1489 1486 1482 1481 1479 1478 1478 1477 1477 1478 1479 1481 1483 1486 1488 1491 1494 1498 1501 1505 1509 1511 1515 1518 1520 1522 1524 1525 1526 1528 1529 1530 1531 1532 1532 1533 1533 1534 1534 1535 1536 1536 1537 1537 1538
1496 1499 1492 1488 1485 1484 1481 1479 1478 1478 1479 1476 1476 1477 1479 1481 1483 1486 1489 1492 1496 1499 1502 1505 1508 1511 1514 1517 1519 1521 1523 1524 1525 1526 1527 1528 1529 1530 1530 1530 1531 1531 1532 1532 1533 1534 1534 1535 1535
1494 1490 1488 1485 1483 1482 1480 1478 1479 1478 1479 1477 1476 1477 1478 1480 1483 1487 1491 1495 1498 1500 1503 1506 1508 1510 1512 1515 1517 1519 1520 1522 1523 1524 1525 1526 1526 1527 1527 1528 1528 1529 1529 1530 1531 1531 1531 1532 1532
1491 1488 1485 1482 1480 1479 1478 1479 1480 1480 1479 1478 1477 1478 1480 1483 1486 1489 1493 1497 1499 1501 1503 1505 1508 1510 1511 1513 1515 1516 1517 1519 1521 1522 1523 1523 1523 1524 1524 1525 1525 1525 1526 1526 1527 1528 1528 1528 1529
1487 1485 1482 1479 1476 1476 1478 1481 1482 1482 1480 1479 1478 1479 1481 1484 1487 1490 1493 1496 1499 1501 1503 1505 1507 1508 1509 1510 1511 1512 1512 1514 1516 1517 1519 1520 1520 1521 1521 1521 1521 1522 1522 1522 1523 1524 1524 1525 1525
1486 1485 1481 1478 1476 1476 1477 1485 1487 1486 1482 1480 1481 1482 1484 1486 1489 1491 1493 1496 1498 1500 1502 1503 1505 1505 1506 1507 1507 1508 1508 1509 1510 1513 1515 1515 1516 1516 1517 1517 1517 1517 1518 1519 1519 1519 1520 1520 1521
1486 1490 1491 1482 1479 1478 1483 1497 1492 1488 1484 1483 1484 1485 1487 1489 1490 1492 1494 1496 1497 1499 1500 1501 1501 1501 1501 1502 1502 1503 1503 1504 1506 1507 1509 1510 1511 1512 1512 1513 1513 1513 1514 1514 1515 1515 1515 1516 1516
1495 1499 1495 1488 1483 1482 1488 1499 1497 1492 1488 1488 1488 1489 1490 1491 1492 1494 1495 1495 1497 1498 1499 1498 1498 1497 1497 1497 1497 1497 1497 1498 1501 1502 1503 1505 1506 1507 1508 1508 1508 1509 1510 1510 1511 1511 1512 1512 1512
1499 1497 1495 1494 1490 1489 1495 1502 1499 1495 1492 1492 1492 1492 1493 1493 1494 1495 1496 1496 1496 1496 1497 1497 1495 1494 1494 1494 1492 1491 1491 1494 1495 1496 1499 1501 1502 1503 1504 1504 1505 1505 1506 1507 1507 1508 1508 1509 1509
1491 1494 1496 1493 1490 1495 1501 1504 1502 1499 1497 1496 1496 1496 1496 1496 1496 1496 1497 1497 1496 1496 1496 1495 1494 1493 1493 1492 1490 1489 1489 1490 1491 1492 1495 1497 1498 1499 1499 1500 1501 1502 1503 1504 1504 1505 1505 1506 1506
1490 1493 1494 1492 1491 1497 1504 1506 1504 1502 1502 1501 1500 1499 1497 1497 1498 1497 1497 1497 1497 1496 1496 1495 1494 1494 1493 1492 1491 1490 1489 1490 1491 1491 1493 1493 1494 1495 1495 1497 1498 1499 1500 1501 1501 1502 1503 1503 1504
1487 1489 1489 1492 1494 1497 1502 1509 1508 1506 1505 1504 1502 1501 1500 1499 1499 1498 1498 1498 1497 1496 1496 1496 1494 1493 1492 1491 1490 1489 1489 1490 1490 1491 1491 1491 1492 1491 1493 1494 1495 1496 1496 1497 1498 1499 1500 1500 1501
1488 1480 1482 1487 1497 1506 1503 1518 1511 1509 1507 1506 1504 1503 1502 1501 1500 1500 1500 1499 1498 1498 1497 1496 1495 1493 1492 1491 1490 1489 1489 1489 1488 1488 1488 1489 1488 1488 1489 1490 1490 1492 1493 1493 1494 1496 1496 1497 1497
1481 1480 1484 1489 1497 1507 1509 1516 1516 1510 1510 1508 1506 1504 1503 1502 1502 1502 1501 1500 1499 1498 1497 1497 1495 1494 1492 1491 1490 1489 1488 1487 1487 1486 1486 1485 1485 1485 1485 1485 1486 1487 1488 1489 1490 1491 1492 1493 1493
1478 1484 1491 1500 1506 1517 1514 1516 1516 1512 1508 1507 1506 1505 1504 1504 1503 1503 1502 1501 1500 1498 1497 1496 1495 1493 1492 1491 1489 1487 1486 1485 1484 1484 1483 1482 1481 1481 1481 1481 1481 1482 1482 1484 1485 1486 1487 1488 1489
1483 1497 1516 1518 1525 1522 1513 1515 1515 1506 1505 1505 1505 1505 1505 1505 1504 1503 1502 1501 1500 1498 1497 1495 1494 1492 1490 1489 1487 1485 1484 1483 1481 1480 1479 1478 1477 1477 1477 1476 1476 1476 1477 1477 1479 1480 1481 1482 1483
1487 1495 1518 1526 1528 1523 1515 1516 1510 1504 1504 1504 1505 1505 1505 1505 1504 1503 1502 1500 1499 1497 1496 1494 1492 1490 1488 1486 1485 1483 1481 1480 1478 1477 1475 1474 1473 1472 1472 1471 1471 1471 1471 1471 1472 1473 1474 1476 1477
1488 1498 1500 1516 1520 1525 1520 1512 1506 1504 1504 1504 1504 1505 1504 1504 1503 1502 1500 1499 1497 1495 1493 1492 1489 1488 1486 1484 1482 1480 1478 1476 1474 1473 1471 1470 1469 1468 1467 1467 1466 1466 1465 1465 1465 1466 1467 1468 1470
1488 1496 1508 1517 1526 1528 1520 1516 1516 1507 1506 1505 1504 1504 1503 1503 1502 1500 1498 1496 1494 1492 1490 1488 1486 1484 1482 1480 1478 1476 1474 1472 1470 1468 1466 1465 1464 1463 1462 1462 1461 1460 1460 1459 1459 1460 1461 1461 1462
1494 1500 1510 1519 1520 1528 1530 1524 1509 1508 1505 1505 1504 1504 1503 1501 1500 1498 1495 1493 1491 1489 1486 1484 1482 1479 1477 1475 1472 1470 1468 1466 1464 1462 1460 1459 1458 1457 1456 1456 1455 1454 1454 1454 1454 1454 1454 1455 1456
1494 1500 1507 1517 1521 1525 1529 1526 1508 1506 1505 1504 1503 1503 1502 1500 1498 1495 1493 1490 1488 1485 1483 1480 1477 1474 1471 1468 1466 1463 1461 1459 1456 1455 1453 1452 1451 1450 1450 1449 1448 1448 1448 1448 1447 1448 1448 1449 1449